Location: Chrzanów
(50.1411°N, 19.4039°E)
Time: 23:27:30
(UTC+01:00)

ISS - Visible Passes

Search period start: 23 January 2019 00:00
Search period end: 02 February 2019 00:00
Orbit: 404 x 410 km, 51.6° (Epoch: 24 January)

Date Brightness Start Highest point End Pass type
(mag) Time Alt. Az. Time Alt. Az. Time Alt. Az.
23 Jan -1.7 18:39:39 10° SSW 18:41:05 20° S 18:41:05 20° S visible
24 Jan -2.1 17:48:57 10° S 17:51:24 19° SE 17:52:04 18° SE visible
24 Jan -0.7 19:24:15 10° WSW 19:24:47 14° WSW 19:24:47 14° WSW visible
25 Jan -1.4 16:58:50 10° SSE 17:00:16 12° SE 17:01:42 10° ESE visible
25 Jan -3.1 18:32:59 10° SW 18:35:41 46° SSW 18:35:41 46° SSW visible
26 Jan -2.9 17:41:53 10° SW 17:44:56 35° SSE 17:46:30 22° E visible
26 Jan -1.1 19:18:02 10° W 19:19:14 21° W 19:19:14 21° W visible
27 Jan -4.0 18:26:37 10° WSW 18:29:55 85° SSE 18:30:00 84° ESE visible
28 Jan -3.6 17:35:16 10° WSW 17:38:32 63° SSE 17:40:43 19° E visible
28 Jan -1.6 19:11:50 10° W 19:13:26 26° W 19:13:26 26° W visible
29 Jan -3.8 18:20:21 10° W 18:23:39 72° N 18:24:07 59° NE visible
30 Jan -3.8 17:28:53 10° WSW 17:32:11 86° NNW 17:34:47 16° ENE visible
30 Jan -2.0 19:05:34 10° WNW 19:07:30 32° WNW 19:07:30 32° WNW visible
31 Jan -3.7 18:14:05 10° W 18:17:22 65° N 18:18:09 45° ENE visible
31 Jan -0.3 19:50:41 10° WNW 19:50:52 11° WNW 19:50:52 11° WNW visible
01 Feb -3.7 17:22:34 10° W 17:25:52 68° N 17:28:49 12° ENE visible
01 Feb -2.6 18:59:13 10° WNW 19:01:31 41° WNW 19:01:31 41° WNW visible
